FW3996 Weather Reports


time (UTC)temp
C
wind
direction
speed
KPH
gust
KPH
rain 1hr
cm
rain 24hr
cm
rain mn
cm
humidity
%
barometer
mb
20260906173442 23 355 1.6 6.4 0.00 0.00 0.00 73 1019.9
20260906173200 23 113 1.6 9.7 0.00 0.00 0.00 74 1019.9
20260906172430 23 109 1.6 9.7 0.00 0.00 0.00 76 1020.0
20260906172146 23 100 3.2 11.3 0.00 0.00 0.00 74 1019.9
20260906171651 23 104 3.2 11.3 0.00 0.00 0.00 77 1019.9
20260906170911 23 127 3.2 6.4 0.00 0.00 0.00 75 1019.9
20260906170406 22 97 3.2 11.3 0.00 0.00 0.00 77 1020.0
20260906170123 22 117 3.2 11.3 0.00 0.00 0.00 75 1020.0
20260906165354 22 143 3.2 9.7 0.00 0.00 0.00 75 1019.9
20260906164852 22 117 3.2 8.0 0.00 0.00 0.00 76 1019.9
20260906164350 22 135 1.6 8.0 0.00 0.00 0.00 75 1020.0
20260906163848 22 89 3.2 6.4 0.00 0.00 0.00 77 1020.1
20260906163346 22 110 3.2 9.7 0.00 0.00 0.00 80 1020.1
20260906162844 22 107 3.2 9.7 0.00 0.00 0.00 77 1020.1
20260906162344 22 59 1.6 4.8 0.00 0.00 0.00 78 1020.0
20260906161844 22 60 1.6 4.8 0.00 0.00 0.00 78 1020.1
20260906161345 22 55 1.6 6.4 0.00 0.00 0.00 78 1020.1
20260906160844 22 56 1.6 6.4 0.00 0.00 0.00 75 1020.1
20260906160343 22 87 1.6 4.8 0.00 0.00 0.00 77 1020.1
20260906155841 22 87 1.6 6.4 0.00 0.00 0.00 77 1020.2
20260906155342 22 23 3.2 6.4 0.00 0.00 0.00 78 1020.2
20260906154842 22 86 3.2 6.4 0.00 0.00 0.00 79 1020.2
20260906154559 21 95 1.6 6.4 0.00 0.00 0.00 78 1020.2
20260906153842 21 22 1.6 3.2 0.00 0.00 0.00 79 1020.2
20260906153342 21 22 1.6 3.2 0.00 0.00 0.00 80 1020.2
20260906153108 20 22 1.6 6.4 0.00 0.00 0.00 79 1020.2
20260906152335 20 22 1.6 6.4 0.00 0.00 0.00 79 1020.2
20260906151837 20 29 1.6 4.8 0.00 0.00 0.00 79 1020.3
20260906151336 20 65 1.6 4.8 0.00 0.00 0.00 79 1020.3
20260906151102 20 104 1.6 4.8 0.00 0.00 0.00 84 1020.4
20260906150336 20 105 1.6 4.8 0.00 0.00 0.00 82 1020.4
20260906145836 20 29 1.6 3.2 0.00 0.00 0.00 83 1020.4
20260906145337 20 88 1.6 4.8 0.00 0.00 0.00 82 1020.5
20260906144836 19 100 1.6 4.8 0.00 0.00 0.00 82 1020.5
20260906144602 19 44 1.6 4.8 0.00 0.00 0.00 84 1020.4
20260906143836 18 43 1.6 4.8 0.00 0.00 0.00 83 1020.4
20260906143600 19 57 1.6 3.2 0.00 0.00 0.00 83 1020.4
20260906142836 19 59 1.6 3.2 0.00 0.00 0.00 87 1020.4
20260906142336 18 69 1.6 3.2 0.00 0.00 0.00 86 1020.4
20260906141837 18 113 0.0 3.2 0.00 0.00 0.00 89 1020.5
20260906141335 18 113 0.0 1.6 0.00 0.00 0.00 90 1020.6
20260906140836 18 127 0.0 1.6 0.00 0.00 0.00 91 1020.6
20260906140336 17 92 0.0 3.2 0.00 0.00 0.00 93 1020.6
20260906135837 17 107 0.0 3.2 0.00 0.00 0.00 95 1020.6
20260906135335 17 76 0.0 3.2 0.00 0.00 0.00 97 1020.6
20260906134831 16 120 0.0 1.6 0.00 0.00 0.00 98 1020.7
20260906134330 16 120 0.0 1.6 0.00 0.00 0.00 98 1020.7
20260906133828 15 120 0.0 1.6 0.00 0.00 0.00 99 1020.7
20260906133326 15 120 0.0 1.6 0.00 0.00 0.00 98 1020.8
20260906132826 15 120 0.0 0.0 0.00 0.00 0.00 98 1020.6
20260906132549 14 120 0.0 1.6 0.00 0.00 0.00 99 1020.7
20260906131823 13 120 0.0 1.6 0.00 0.00 0.00 98 1020.6
20260906131323 13 120 0.0 0.0 0.00 0.00 0.00 99 1020.7
20260906130824 13 120 0.0 0.0 0.00 0.00 0.00 98 1020.7
20260906130321 12 120 0.0 0.0 0.00 0.00 0.00 98 1020.7
20260906125819 12 120 0.0 0.0 0.00 0.00 0.00 98 1020.6
20260906125537 12 120 0.0 1.6 0.00 0.00 0.00 98 1020.5
20260906124817 12 120 0.0 1.6 0.00 0.00 0.00 98 1020.4
20260906124318 12 120 0.0 1.6 0.00 0.00 0.00 98 1020.3
20260906123817 11 120 0.0 0.0 0.00 0.00 0.00 98 1020.4
20260906123316 11 120 0.0 0.0 0.00 0.00 0.00 98 1020.3
20260906122815 11 120 0.0 0.0 0.00 0.00 0.00 98 1020.3
20260906122317 11 120 0.0 0.0 0.00 0.00 0.00 98 1020.3
20260906121811 11 120 0.0 0.0 0.00 0.00 0.00 98 1020.3
20260906121305 10 120 0.0 0.0 0.00 0.00 0.00 98 1020.5
20260906120759 10 120 0.0 0.0 0.00 0.00 0.00 98 1020.4
20260906120252 10 120 0.0 0.0 0.00 0.00 0.00 98 1020.4
20260906115746 10 120 0.0 0.0 0.00 0.00 0.00 98 1020.4
20260906115241 10 120 0.0 0.0 0.00 0.00 0.00 98 1020.3
20260906114735 10 120 0.0 0.0 0.00 0.00 0.00 98 1020.3
20260906114228 10 120 0.0 0.0 0.00 0.00 0.00 98 1020.3
20260906113722 10 120 0.0 0.0 0.00 0.00 0.00 98 1020.2
20260906113216 10 120 0.0 0.0 0.00 0.00 0.00 98 1020.1
20260906112711 10 120 0.0 0.0 0.00 0.00 0.00 98 1020.0
20260906112204 10 120 0.0 0.0 0.00 0.00 0.00 98 1019.9
20260906111659 10 120 0.0 0.0 0.00 0.00 0.00 98 1020.0
20260906111153 10 120 0.0 0.0 0.00 0.00 0.00 98 1019.9
20260906110646 10 120 0.0 0.0 0.00 0.00 0.00 98 1020.0
20260906110140 10 120 0.0 0.0 0.00 0.00 0.00 98 1019.9
20260906105634 10 120 0.0 0.0 0.00 0.00 0.00 98 1019.9
20260906105346 10 120 0.0 0.0 0.00 0.00 0.00 98 1019.9
20260906104623 10 120 0.0 0.0 0.00 0.00 0.00 98 1019.9
20260906104347 10 120 0.0 0.0 0.00 0.00 0.00 98 1019.9
20260906104056 10 120 0.0 0.0 0.00 0.00 0.00 98 1019.9
20260906103324 10 120 0.0 0.0 0.00 0.00 0.00 98 1019.9
20260906102558 10 120 0.0 0.0 0.00 0.00 0.00 98 1019.8
20260906102053 10 120 0.0 0.0 0.00 0.00 0.00 98 1019.8
20260906101810 10 120 0.0 0.0 0.00 0.00 0.00 98 1019.7
20260906101040 10 120 0.0 0.0 0.00 0.00 0.00 98 1019.8
20260906100535 10 120 0.0 0.0 0.00 0.00 0.00 98 1019.8
20260906100028 10 120 0.0 0.0 0.00 0.00 0.00 98 1019.7
20260906095522 10 120 0.0 0.0 0.00 0.00 0.00 98 1019.7
20260906095016 10 120 0.0 0.0 0.00 0.00 0.00 98 1019.7
20260906094510 10 120 0.0 0.0 0.00 0.00 0.00 98 1019.7
20260906094004 10 120 0.0 0.0 0.00 0.00 0.00 98 1019.7
20260906093500 10 120 0.0 0.0 0.00 0.00 0.00 98 1019.8
20260906092953 10 120 0.0 0.0 0.00 0.00 0.00 98 1019.8
20260906092447 10 120 0.0 0.0 0.00 0.00 0.00 98 1019.8
20260906092159 10 120 0.0 0.0 0.00 0.00 0.00 98 1019.8
20260906091439 10 120 0.0 0.0 0.00 0.00 0.00 98 1019.7
20260906090937 10 120 0.0 0.0 0.00 0.00 0.00 98 1019.8
20260906090434 10 120 0.0 0.0 0.00 0.00 0.00 98 1019.8
20260906090157 10 120 0.0 0.0 0.00 0.00 0.00 98 1019.7
20260906085433 11 120 0.0 0.0 0.00 0.00 0.00 98 1019.8
20260906084928 11 120 0.0 1.6 0.00 0.00 0.00 98 1019.7
20260906084644 11 120 0.0 1.6 0.00 0.00 0.00 98 1019.7
20260906083926 11 120 0.0 1.6 0.00 0.00 0.00 98 1019.8
20260906083423 11 120 0.0 1.6 0.00 0.00 0.00 98 1019.8
20260906082923 11 120 0.0 0.0 0.00 0.00 0.00 98 1019.8
20260906082421 11 120 0.0 0.0 0.00 0.00 0.00 98 1019.7
20260906082139 11 120 0.0 0.0 0.00 0.00 0.00 98 1019.7
20260906081418 11 120 0.0 0.0 0.00 0.00 0.00 98 1019.6
20260906080922 11 120 0.0 0.0 0.00 0.00 0.00 98 1019.6
20260906080635 11 120 0.0 0.0 0.00 0.00 0.00 98 1019.6
20260906075917 11 120 0.0 0.0 0.00 0.00 0.00 98 1019.7
20260906075411 11 120 0.0 0.0 0.00 0.00 0.00 98 1019.8
20260906074908 11 120 0.0 0.0 0.00 0.00 0.00 98 1019.9
20260906074409 11 120 0.0 0.0 0.00 0.00 0.00 98 1019.7
20260906074129 11 120 0.0 0.0 0.00 0.00 0.00 98 1019.7
20260906073404 11 120 0.0 0.0 0.00 0.00 0.00 98 1019.7
20260906072906 11 120 0.0 0.0 0.00 0.00 0.00 98 1019.7
20260906072405 11 120 0.0 0.0 0.00 0.00 0.00 97 1019.7
20260906071903 11 120 0.0 0.0 0.00 0.00 0.00 98 1019.8
20260906071403 11 120 0.0 0.0 0.00 0.00 0.00 98 1019.8
20260906070904 11 120 0.0 0.0 0.00 0.00 0.00 98 1019.9
20260906070629 11 120 0.0 0.0 0.00 0.00 0.00 97 1019.8
20260906065900 11 120 0.0 0.0 0.00 0.00 0.00 98 1019.8
20260906065400 11 120 0.0 0.0 0.00 0.00 0.00 98 1019.8
20260906064901 12 120 0.0 0.0 0.00 0.00 0.00 98 1019.8
20260906064401 12 120 0.0 0.0 0.00 0.00 0.00 98 1019.8
20260906063903 12 120 0.0 0.0 0.00 0.00 0.00 98 1019.7
20260906063401 11 120 0.0 0.0 0.00 0.00 0.00 98 1019.7
20260906063129 11 120 0.0 0.0 0.00 0.00 0.00 97 1019.7
20260906062624 11 120 0.0 0.0 0.00 0.00 0.00 97 1019.6
20260906061858 11 120 0.0 0.0 0.00 0.00 0.00 98 1019.5
20260906061358 12 120 0.0 0.0 0.00 0.00 0.00 97 1019.5
20260906060856 12 120 0.0 0.0 0.00 0.00 0.00 97 1019.4
20260906060357 12 120 0.0 0.0 0.00 0.00 0.00 98 1019.3
20260906055857 12 120 0.0 0.0 0.00 0.00 0.00 98 1019.2
20260906055358 12 120 0.0 0.0 0.00 0.00 0.00 98 1019.1
20260906054857 12 120 0.0 0.0 0.00 0.00 0.00 98 1019.1
20260906054358 12 120 0.0 0.0 0.00 0.00 0.00 97 1018.9
20260906053857 12 120 0.0 0.0 0.00 0.00 0.00 98 1018.9
20260906053356 12 120 0.0 0.0 0.00 0.00 0.00 98 1018.9
20260906052857 12 120 0.0 0.0 0.00 0.00 0.00 97 1018.9
20260906052357 12 120 0.0 0.0 0.00 0.00 0.00 98 1018.8
20260906051858 12 120 0.0 0.0 0.00 0.00 0.00 97 1018.9
20260906051356 13 120 0.0 0.0 0.00 0.00 0.00 97 1018.9
20260906051118 13 120 0.0 0.0 0.00 0.00 0.00 97 1019.1
20260906050356 13 120 0.0 0.0 0.00 0.00 0.00 97 1018.9
20260906045856 13 120 0.0 0.0 0.00 0.00 0.00 97 1018.9
20260906045349 13 120 0.0 0.0 0.00 0.00 0.00 97 1019.1
20260906044843 13 120 0.0 3.2 0.00 0.00 0.00 98 1018.9
20260906044609 13 120 0.0 3.2 0.00 0.00 0.00 97 1019.1
20260906043831 13 120 0.0 0.0 0.00 0.00 0.00 97 1018.9
20260906043327 13 120 0.0 0.0 0.00 0.00 0.00 97 1018.8
20260906042819 13 120 0.0 0.0 0.00 0.00 0.00 97 1018.8
20260906042314 13 120 0.0 0.0 0.00 0.00 0.00 97 1018.7
20260906041808 13 120 0.0 0.0 0.00 0.00 0.00 97 1018.7
20260906041302 13 120 0.0 0.0 0.00 0.00 0.00 97 1018.7
20260906041016 13 120 0.0 0.0 0.00 0.00 0.00 97 1018.7
20260906040250 13 120 0.0 0.0 0.00 0.00 0.00 97 1018.6
20260906035747 13 120 0.0 0.0 0.00 0.00 0.00 97 1018.5
20260906035241 13 120 0.0 1.6 0.00 0.00 0.00 97 1018.5
20260906034734 13 120 0.0 1.6 0.00 0.00 0.00 97 1018.5
20260906034228 13 120 0.0 1.6 0.00 0.00 0.00 97 1018.6
20260906033722 13 120 0.0 1.6 0.00 0.00 0.00 97 1018.5
20260906033217 13 120 0.0 0.0 0.00 0.00 0.00 97 1018.4
20260906032931 13 120 0.0 0.0 0.00 0.00 0.00 97 1018.4
20260906032205 13 120 0.0 0.0 0.00 0.00 0.00 97 1018.5
20260906031659 13 120 0.0 0.0 0.00 0.00 0.00 97 1018.4
20260906031152 13 120 0.0 0.0 0.00 0.00 0.00 97 1018.3
20260906030646 13 120 0.0 0.0 0.00 0.00 0.00 97 1018.3
20260906030140 13 120 0.0 0.0 0.00 0.00 0.00 97 1018.3
20260906025635 13 120 0.0 1.6 0.00 0.00 0.00 97 1018.3
20260906025129 14 120 0.0 1.6 0.00 0.00 0.00 97 1018.2
20260906024622 14 120 0.0 0.0 0.00 0.00 0.00 97 1018.2
20260906024117 14 120 0.0 0.0 0.00 0.00 0.00 97 1018.1
20260906023610 14 120 0.0 0.0 0.00 0.00 0.00 97 1018.2
20260906023104 14 120 0.0 0.0 0.00 0.00 0.00 97 1018.2
20260906022819 14 120 0.0 0.0 0.00 0.00 0.00 97 1018.3
20260906022053 14 120 0.0 1.6 0.00 0.00 0.00 97 1018.3
20260906021812 14 120 0.0 1.6 0.00 0.00 0.00 97 1018.3
20260906021041 14 120 0.0 0.0 0.00 0.00 0.00 96 1018.2
20260906020535 15 120 0.0 0.0 0.00 0.00 0.00 97 1018.1
20260906020256 15 120 0.0 0.0 0.00 0.00 0.00 96 1018.1
20260906015522 15 120 0.0 0.0 0.00 0.00 0.00 96 1018.1
20260906015016 15 120 0.0 0.0 0.00 0.00 0.00 96 1018.0
20260906014510 15 120 0.0 0.0 0.00 0.00 0.00 96 1018.0
20260906014005 15 120 0.0 0.0 0.00 0.00 0.00 96 1017.9
20260906013715 15 120 0.0 0.0 0.00 0.00 0.00 96 1017.9
20260906012952 15 120 0.0 0.0 0.00 0.00 0.00 96 1017.7
20260906012707 15 120 0.0 0.0 0.00 0.00 0.00 96 1017.7
20260906012159 15 120 0.0 0.0 0.00 0.00 0.00 96 1017.6
20260906011435 15 120 0.0 0.0 0.00 0.00 0.00 95 1017.7
20260906010928 16 120 0.0 0.0 0.00 0.00 0.00 95 1017.7
20260906010642 16 120 0.0 0.0 0.00 0.00 0.00 95 1017.7
20260906005917 16 120 0.0 0.0 0.00 0.00 0.00 95 1017.7
20260906005410 16 120 0.0 0.0 0.00 0.00 0.00 95 1017.6
20260906004905 16 120 0.0 0.0 0.00 0.00 0.00 95 1017.7
20260906004624 16 120 0.0 0.0 0.00 0.00 0.00 95 1017.7
20260906003856 16 120 0.0 0.0 0.00 0.00 0.00 95 1017.7
20260906003347 16 120 0.0 0.0 0.00 0.00 0.00 94 1017.6
20260906003330 17 120 0.0 0.0 0.00 0.00 0.00 94 1017.6
20260906002334 17 120 0.0 0.0 0.00 0.00 0.00 93 1017.6
20260906001829 17 120 0.0 0.0 0.00 0.00 0.00 93 1017.6
20260906001323 17 120 0.0 0.0 0.00 0.00 0.00 92 1017.6
20260906000817 18 120 0.0 0.0 0.00 0.00 0.00 92 1017.7
20260906000528 18 120 0.0 0.0 0.00 0.00 0.00 91 1017.6
20260905235805 18 120 0.0 0.0 0.00 0.00 0.00 91 1017.6
20260905235259 18 120 0.0 0.0 0.00 0.00 0.00 90 1017.6
20260905234753 18 120 0.0 1.6 0.00 0.00 0.00 88 1017.6
20260905234505 19 120 0.0 1.6 0.00 0.00 0.00 87 1017.6
20260905233741 20 84 0.0 3.2 0.00 0.00 0.00 85 1017.6
20260905233235 20 84 1.6 6.4 0.00 0.00 0.00 84 1017.6
20260905232729 19 155 1.6 6.4 0.00 0.00 0.00 85 1017.6
20260905232222 19 177 1.6 4.8 0.00 0.00 0.00 86 1017.6
20260905231717 19 318 1.6 3.2 0.00 0.00 0.00 87 1017.6
20260905231210 19 198 1.6 3.2 0.00 0.00 0.00 86 1017.7
20260905230705 20 198 1.6 4.8 0.00 0.00 0.00 84 1017.7
20260905230200 20 180 1.6 4.8 0.00 0.00 0.00 84 1017.6
20260905225700 20 161 1.6 4.8 0.00 0.00 0.00 83 1017.5
20260905225201 20 161 1.6 4.8 0.00 0.00 0.00 83 1017.6
20260905224700 20 142 1.6 4.8 0.00 0.00 0.00 82 1017.7
20260905224201 20 159 1.6 4.8 0.00 0.00 0.00 81 1017.9
20260905223700 21 118 1.6 4.8 0.00 0.00 0.00 81 1017.7
20260905223203 21 189 1.6 4.8 0.00 0.00 0.00 81 1017.7
20260905222700 21 333 1.6 4.8 0.00 0.00 0.00 81 1017.6
20260905222202 21 333 1.6 4.8 0.00 0.00 0.00 80 1017.6
20260905221700 21 192 1.6 8.0 0.00 0.00 0.00 80 1017.6
20260905221200 21 37 1.6 8.0 0.00 0.00 0.00 80 1017.6
20260905220659 21 269 1.6 4.8 0.00 0.00 0.00 79 1017.6
20260905220201 21 189 1.6 4.8 0.00 0.00 0.00 79 1017.6
20260905215654 21 121 1.6 4.8 0.00 0.00 0.00 80 1017.6
20260905215156 22 103 1.6 4.8 0.00 0.00 0.00 78 1017.5
20260905214655 22 40 1.6 11.3 0.00 0.00 0.00 77 1017.5
20260905214420 22 67 3.2 11.3 0.00 0.00 0.00 76 1017.4
20260905213654 22 300 1.6 6.4 0.00 0.00 0.00 76 1017.8
20260905213155 22 80 1.6 4.8 0.00 0.00 0.00 78 1017.9
20260905212656 22 105 3.2 6.4 0.00 0.00 0.00 78 1017.8
20260905212418 22 155 3.2 6.4 0.00 0.00 0.00 77 1017.6
20260905211921 22 184 3.2 4.8 0.00 0.00 0.00 77 1017.6
20260905211150 22 166 3.2 9.7 0.00 0.00 0.00 76 1017.7
20260905210653 22 163 3.2 9.7 0.00 0.00 0.00 75 1017.8
20260905210150 22 134 3.2 8.0 0.00 0.00 0.00 77 1017.8
20260905205650 23 92 1.6 6.4 0.00 0.00 0.00 78 1017.8
20260905205151 22 215 3.2 6.4 0.00 0.00 0.00 76 1017.9
20260905204650 23 43 3.2 8.0 0.00 0.00 0.00 78 1017.8
20260905204152 22 85 1.6 8.0 0.00 0.00 0.00 77 1017.8
20260905203651 22 87 3.2 9.7 0.00 0.00 0.00 77 1017.8
20260905203150 22 160 3.2 14.5 0.00 0.00 0.00 79 1017.7
20260905202652 22 61 4.8 14.5 0.00 0.00 0.00 80 1017.7
20260905202143 22 99 3.2 11.3 0.00 0.00 0.00 79 1017.6
20260905201636 22 183 3.2 12.9 0.00 0.00 0.00 79 1017.6
20260905201137 22 154 3.2 12.9 0.00 0.00 0.00 80 1017.6
20260905200635 22 82 3.2 9.7 0.00 0.00 0.00 81 1017.7
20260905200135 22 134 4.8 9.7 0.00 0.00 0.00 80 1017.7
20260905195634 22 157 4.8 9.7 0.00 0.00 0.00 80 1017.7
20260905195134 22 127 3.2 9.7 0.00 0.00 0.00 79 1017.7
20260905194634 22 134 3.2 6.4 0.00 0.00 0.00 79 1017.6
20260905194137 23 40 1.6 6.4 0.00 0.00 0.00 78 1017.8
20260905193634 23 142 1.6 6.4 0.00 0.00 0.00 77 1017.7
20260905193355 23 75 3.2 8.0 0.00 0.00 0.00 80 1017.8
20260905193118 23 116 3.2 8.0 0.00 0.00 0.00 79 1017.9
20260905192128 23 20 3.2 9.7 0.00 0.00 0.00 81 1018.0
20260905191847 22 113 3.2 9.7 0.00 0.00 0.00 80 1018.0
20260905191128 22 102 3.2 6.4 0.00 0.00 0.00 80 1018.1
20260905190626 22 22 3.2 6.4 0.00 0.00 0.00 79 1018.1
20260905190127 23 38 3.2 8.0 0.00 0.00 0.00 78 1018.0
20260905185626 23 119 3.2 8.0 0.00 0.00 0.00 78 1018.2
20260905185126 23 113 3.2 6.4 0.00 0.00 0.00 79 1018.1
20260905184619 23 56 3.2 8.0 0.00 0.00 0.00 79 1018.2
20260905184114 22 113 3.2 9.7 0.00 0.00 0.00 79 1018.3
20260905183827 22 140 3.2 9.7 0.00 0.00 0.00 78 1018.3
20260905183102 23 121 3.2 11.3 0.00 0.00 0.00 81 1018.3
20260905182556 22 59 3.2 11.3 0.00 0.03 0.00 80 1018.3
20260905182051 22 126 3.2 8.0 0.00 0.03 0.00 83 1018.4
20260905181545 22 112 3.2 9.7 0.00 0.03 0.00 84 1018.3
20260905181039 22 126 3.2 9.7 0.00 0.03 0.00 83 1018.3
20260905180534 22 128 4.8 9.7 0.00 0.03 0.00 82 1018.3
20260905180027 22 93 3.2 9.7 0.00 0.03 0.00 82 1018.3
20260905175521 22 39 1.6 9.7 0.00 0.03 0.00 80 1018.3
20260905175509 22 82 3.2 9.7 0.00 0.03 0.00 81 1018.4
20260905175002 22 49 3.2 9.7 0.00 0.03 0.00 82 1018.3